Clinton-Sherman, OK

10:05 PM CDT on September 25, 2017 (GMT -0500)
Clinton-Sherman

Weather History for KCSM - March, 2013

Change the Weather History Date:

Sunday, March 31, 2013

  Actual Average Record
Temperature  
Mean Temperature 58 °F -  
Max Temperature 68 °F 64 °F 86 °F (2015)
Min Temperature 48 °F 42 °F 32 °F (2011)
Degree Days  
Heating Degree Days 7    
Growing Degree Days 8 (Base 50)    
Moisture  
Dew Point 46 °F    
Average Humidity 68    
Maximum Humidity 93    
Minimum Humidity 36    
Precipitation  
Precipitation 0.34 in - - ()
Sea Level Pressure  
Sea Level Pressure 30.00 in    
Wind  
Wind Speed 13 mph (NNE)    
Max Wind Speed 36 mph    
Max Gust Speed 47 mph    
Visibility 10 miles    
Events Rain , Thunderstorm    
Averages and records for this station are not official NWS values.
T = Trace of Precipitation, MM = Missing Value Source: NWS Daily Summary

Daily Weather History Graph

Daily Weather History Graph

Search for Another Location

Airport or City:

Trip Planner

Search our weather history database for the weather conditions in past years. The results will help you decide how hot, cold, wet, or windy it might be!

Date:

Astronomy

Mar. 31, 2013 Rise Set
Actual Time 7:24 AM CDT 7:57 PM CDT
Civil Twilight 6:58 AM CDT 8:23 PM CDT
Nautical Twilight 6:28 AM CDT 8:53 PM CDT
Astronomical Twilight 5:58 AM CDT 9:24 PM CDT
Moon No Moon Rise 10:22 AM CDT (3/31)
Length of Visible Light 13h 24m
Length of Day
12h 33m
Waning Gibbous, 77% of the Moon is Illuminated
Mar 31
Waning Gibbous
Apr 2
Last Quarter
Apr 10
New
Apr 18
First Quarter
Apr 25
Full

Hourly Weather History & Observations

Time (CDT) Temp. Dew Point Humidity Pressure Visibility Wind Dir Wind Speed Gust Speed Precip Events Conditions
12:53 AM 61.0 °F 54.0 °F 78% 29.86 in 10.0 mi NNE 3.5 mph - N/A   Clear
1:53 AM 57.0 °F 48.9 °F 74% 29.93 in 10.0 mi NNW 12.7 mph - N/A   Scattered Clouds
2:40 AM 57.2 °F 48.2 °F 72% 29.97 in 10.0 mi North 11.5 mph - N/A Thunderstorm Mostly Cloudy
2:53 AM 60.1 °F 48.0 °F 64% 29.92 in 10.0 mi North 10.4 mph - N/A Thunderstorm Thunderstorm
3:45 AM 57.2 °F 51.8 °F 82% 30.02 in 10.0 mi North 35.7 mph 47.2 mph 0.00 in   Overcast
3:53 AM 55.0 °F 48.0 °F 77% 29.96 in 10.0 mi NNE 33.4 mph 47.2 mph 0.00 in   Overcast
3:58 AM 53.6 °F 48.2 °F 82% 30.01 in 10.0 mi North 27.6 mph 47.2 mph N/A Thunderstorm Overcast
4:19 AM 53.6 °F 48.2 °F 82% 30.03 in 10.0 mi North 18.4 mph 29.9 mph 0.00 in Rain , Thunderstorm Light Thunderstorms and Rain
4:53 AM 52.0 °F 46.9 °F 83% 30.00 in 9.0 mi North 20.7 mph 26.5 mph 0.04 in Rain Rain
5:53 AM 51.1 °F 48.0 °F 89% 30.02 in 5.0 mi North 12.7 mph - 0.15 in Rain Heavy Rain
6:53 AM 51.1 °F 48.0 °F 89% 29.96 in 10.0 mi NNE 18.4 mph - 0.09 in   Partly Cloudy
7:53 AM 50.0 °F 48.0 °F 93% 30.04 in 5.0 mi North 13.8 mph - 0.05 in Rain Heavy Rain
8:53 AM 51.1 °F 48.0 °F 89% 30.02 in 10.0 mi North 18.4 mph - 0.01 in   Mostly Cloudy
9:53 AM 52.0 °F 48.9 °F 89% 30.01 in 10.0 mi NNE 23.0 mph 27.6 mph N/A   Partly Cloudy
10:53 AM 55.9 °F 48.0 °F 75% 30.02 in 10.0 mi NNE 20.7 mph 29.9 mph N/A   Clear
11:53 AM 60.1 °F 46.9 °F 62% 30.03 in 10.0 mi North 23.0 mph 28.8 mph N/A   Clear
12:53 PM 62.1 °F 45.0 °F 53% 30.05 in 10.0 mi NNE 16.1 mph - N/A   Clear
1:53 PM 64.0 °F 43.0 °F 46% 30.05 in 10.0 mi North 9.2 mph 19.6 mph N/A   Clear
2:53 PM 66.0 °F 42.1 °F 42% 30.04 in 10.0 mi North 8.1 mph - N/A   Clear
3:53 PM 66.9 °F 41.0 °F 39% 30.01 in 10.0 mi North 4.6 mph - N/A   Clear
4:53 PM 66.0 °F 39.0 °F 37% 29.99 in 10.0 mi WNW 3.5 mph - N/A   Clear
5:53 PM 68.0 °F 39.9 °F 36% 29.97 in 10.0 mi Calm Calm - N/A   Clear
6:53 PM 64.9 °F 39.9 °F 40% 29.97 in 10.0 mi Calm Calm - N/A   Clear
7:53 PM 61.0 °F 39.9 °F 46% 29.98 in 10.0 mi SE 3.5 mph - N/A   Clear
8:53 PM 54.0 °F 42.1 °F 64% 29.99 in 10.0 mi SSE 5.8 mph - N/A   Clear
9:53 PM 50.0 °F 43.0 °F 77% 30.01 in 10.0 mi South 8.1 mph - N/A   Clear
10:53 PM 48.9 °F 42.1 °F 77% 30.01 in 10.0 mi South 8.1 mph - N/A   Clear
11:53 PM 48.9 °F 41.0 °F 74% 30.01 in 10.0 mi SSE 8.1 mph - N/A   Clear